This is the latest recevied weather packets stored in our database for station/object VK6NP-1. If no packets are shown the sender has not sent any weather packets the latest 10 day(s).
| Time | Temp. | Humidity | Pressure | Rain* | Wind** | Luminosity | Snow |
|---|---|---|---|---|---|---|---|
| 1777770125 | 13.89° C | 85% | 1029.7 hPa | 0 mm | 0 m/s | - | - |
| 1777769822 | 13.33° C | 88% | 1029.8 hPa | 0 mm | 0 m/s | - | - |
| 1777769522 | 12.78° C | 91% | 1029.8 hPa | 0 mm | 0 m/s | - | - |
| 1777769220 | 12.78° C | 91% | 1029.8 hPa | 0 mm | 0 m/s | - | - |
| 1777768917 | 12.22° C | 95% | 1029.8 hPa | 0 mm | 0 m/s | - | - |
| 1777768617 | 11.67° C | 96% | 1029.8 hPa | 0 mm | 0 m/s | - | - |
| 1777768318 | 11.11° C | 96% | 1029.8 hPa | 0 mm | 0 m/s | - | - |
| 1777768015 | 10.56° C | 97% | 1029.8 hPa | 0 mm | 0 m/s | - | - |
| 1777767716 | 10.56° C | 97% | 1029.7 hPa | 0 mm | 0 m/s | - | - |
| 1777767416 | 10° C | 97% | 1029.8 hPa | 0 mm | 0 m/s | - | - |
| 1777767112 | 10° C | 97% | 1029.7 hPa | 0 mm | 0 m/s | - | - |
| 1777766813 | 9.44° C | 97% | 1029.7 hPa | 0 mm | 0 m/s | - | - |
| 1777766513 | 9.44° C | 97% | 1029.7 hPa | 0 mm | 0 m/s | - | - |
| 1777766210 | 8.89° C | 97% | 1029.6 hPa | 0 mm | 0 m/s | - | - |
| 1777765910 | 8.89° C | 97% | 1029.6 hPa | 0 mm | 0 m/s | - | - |
| 1777765611 | 8.33° C | 97% | 1029.5 hPa | 0 mm | 0 m/s | - | - |
| 1777765307 | 8.33° C | 97% | 1029.6 hPa | 0 mm | 0 m/s | - | - |
| 1777765005 | 8.33° C | 97% | 1029.4 hPa | 0 mm | 0 m/s | - | - |
| 1777764706 | 8.33° C | 97% | 1029.4 hPa | 0 mm | 0 m/s | - | - |
| 1777764400 | 7.78° C | 97% | 1029.2 hPa | 0 mm | 0 m/s | - | - |
| 1777764100 | 7.78° C | 97% | 1029.3 hPa | 0 mm | 0 m/s | - | - |
| 1777763801 | 7.78° C | 97% | 1029.2 hPa | 0 mm | 0 m/s | - | - |
| 1777763498 | 7.78° C | 97% | 1029.2 hPa | 0 mm | 0 m/s | - | - |
| 1777763198 | 7.78° C | 97% | 1029 hPa | 0 mm | 0 m/s | - | - |
| 1777762899 | 7.78° C | 97% | 1028.8 hPa | 0 mm | 0 m/s | - | - |
* Rain latest hour (hover to see other rain measurements)
** Current wind speed in m/s (hover to see current wind gust speed)